Dewpoint
16 17 16 18 18 16 16 13 13 14 13 13 14 13 11 11 12 13 11 12 14 13 13 12 9 8 9 7 6 7 7 8 9 9 10 10 10 9 9 9 8 9 8 8 8 8 9 9 8
17 17 18 16 16 16 15 12 15 13 13 13 13 12 12 13 12 12 13 13 13 13 11 10 8 8 7 8 7 7 9 10 10 10 9 9 9 10 9 9 8 8 8 8 8 8 8 7 6
17 18 18 16 17 14 15 14 14 12 12 12 13 12 13 14 13 14 14 14 13 13 9 9 8 8 7 7 7 8 9 9 10 10 9 8 8 9 10 10 9 10 9 8 8 8 8 8 8
19 18 17 17 15 12 13 13 13 12 12 13 13 13 13 14 14 14 13 12 13 13 10 9 9 8 8 8 9 9 11 10 9 8 8 8 8 7 7 7 8 8 9 9 8 8 9 8 9
17 15 17 17 15 12 12 12 11 12 12 13 13 14 14 14 14 14 13 11 12 13 12 9 9 9 10 11 11 12 11 11 10 9 9 8 8 7 7 7 8 8 9 8 8 8 8 9 8
13 15 17 16 14 12 10 13 12 12 12 13 13 14 13 14 14 14 12 11 10 12 13 13 11 10 10 11 12 12 11 10 10 9 9 8 8 8 9 8 8 7 8 9 9 9 9 9 8
15 17 17 15 15 13 9 11 11 12 12 12 13 14 14 15 13 14 13 10 8 10 11 12 12 12 12 11 11 12 11 10 9 9 9 9 9 9 9 9 9 9 10 10 9 9 9 9 9
15 16 16 15 17 15 10 10 11 11 11 11 12 14 14 15 14 14 14 11 7 8 8 9 10 10 10 10 10 10 10 10 10 10 9 10 10 9 10 11 11 11 10 10 11 11 10 9 7
13 16 15 15 15 15 10 11 11 11 11 10 11 13 13 14 15 15 14 10 7 8 7 7 7 8 9 9 7 7 7 8 9 8 8 7 8 10 10 12 11 7 10 10 11 10 11 11 9
14 16 15 12 12 13 12 11 11 11 11 11 10 11 13 14 14 14 13 10 10 7 8 7 8 7 7 6 7 8 6 7 7 12 13 14 13 13 14 14 14 7 6 6 7 10 7 8 9
14 16 13 13 13 12 12 13 12 12 12 11 11 10 12 13 14 13 12 12 12 11 12 10 12 12 9 8 7 8 10 11 13 13 14 15 14 14 13 14 15 14 13 14 11 14 13 11 12
14 12 14 12 12 12 12 10 11 11 11 11 10 10 12 13 13 12 12 13 13 13 14 14 14 12 14 10 10 11 13 13 12 11 14 14 14 14 14 14 15 15 15 14 15 15 15 15 14
12 12 13 11 11 11 10 11 13 11 10 11 10 9 10 12 13 11 12 12 12 13 14 14 14 12 14 14 14 14 14 14 14 14 13 12 13 14 14 15 15 15 14 14 13 15 15 15 15
9 9 9 10 12 12 11 11 11 11 11 10 10 9 10 10 10 10 12 12 12 13 13 14 13 12 14 13 14 14 15 14 14 14 13 14 14 15 15 15 16 15 15 14 14 14 14 14 15
8 10 10 10 11 11 10 10 12 11 10 10 10 10 10 9 9 9 10 10 11 12 12 12 12 12 14 14 13 14 14 13 14 14 14 14 14 14 14 15 15 15 15 14 15 15 15 14 14
9 10 12 11 11 11 10 11 11 9 10 10 10 10 10 9 9 9 10 10 11 11 11 12 12 12 12 14 13 13 13 13 13 14 14 14 14 16 15 15 14 15 15 15 15 15 14 14 13
9 10 12 12 10 10 12 14 12 10 10 9 9 10 10 9 9 9 10 10 11 11 11 11 11 11 12 11 10 11 12 13 14 14 14 14 15 16 16 15 15 14 15 16 15 15 15 14 13
8 8 7 9 12 10 13 11 11 10 10 9 9 9 9 9 9 8 9 10 10 10 10 10 11 11 10 7 11 13 14 15 14 15 14 15 16 17 16 15 16 14 15 14 15 16 15 14 14
1 6 7 7 11 13 11 11 12 10 12 10 8 8 8 8 8 8 8 9 9 9 10 10 10 11 12 12 14 15 15 15 14 14 15 15 15 16 16 16 14 14 13 13 15 14 13 14 15
2 5 5 7 12 12 12 11 10 10 11 12 9 8 8 8 8 8 8 8 9 9 10 10 11 12 13 13 12 14 14 15 15 15 13 15 16 15 15 15 12 13 13 12 13 14 15 15 16
-1 1 0 6 12 10 12 11 12 12 12 12 11 8 8 8 9 8 8 8 8 9 9 10 11 11 13 14 13 13 15 15 15 15 14 12 13 14 14 15 12 13 13 14 15 15 14 14 14
-10 -7 -2 -3 -1 2 9 9 12 12 12 12 13 9 8 9 9 9 8 8 8 8 9 9 10 11 13 13 11 13 15 15 14 14 13 10 13 14 14 15 13 11 13 12 14 14 14 14 14
-12 -11 -4 -2 -2 3 5 7 8 11 11 12 12 10 9 9 9 9 8 8 8 8 8 9 11 10 12 11 10 14 15 16 14 12 14 14 14 14 14 16 12 12 14 14 14 14 14 14 14
-12 -9 -4 4 6 6 6 7 8 11 9 12 10 10 9 8 9 9 8 9 9 8 9 10 11 9 10 10 10 11 13 15 15 15 15 15 15 16 15 16 11 13 14 13 13 14 14 14 13
-11 -7 -2 3 10 9 6 7 6 4 8 10 11 10 10 8 9 9 9 9 9 9 10 11 12 10 11 10 10 11 12 14 14 15 16 16 15 15 16 16 13 10 13 15 14 12 8 11 13
-12 -9 -3 2 10 8 7 8 5 3 2 7 10 10 10 9 9 9 9 10 10 10 11 11 12 12 10 10 10 10 10 12 13 15 15 16 16 11 14 16 16 12 9 12 12 13 13 12 9
-13 -10 -10 -5 5 6 5 5 5 7 8 10 10 10 10 10 10 9 9 9 10 10 11 11 12 12 12 11 10 10 10 10 11 13 15 16 16 14 15 15 17 16 11 10 8 10 11 11 8
-13 -13 -11 -8 -4 7 8 8 9 10 10 8 9 11 10 10 9 9 9 9 9 10 10 11 12 12 11 12 11 10 9 10 10 11 13 14 14 14 16 16 15 15 9 7 11 12 12 7 6
-11 -10 -12 -11 -3 -1 7 9 9 10 9 8 9 11 11 10 10 9 9 9 9 9 10 10 12 12 11 11 11 11 11 10 10 10 11 11 13 16 16 16 14 15 6 5 10 15 14 9 7
-11 -11 -11 -8 -10 -4 2 4 8 8 7 8 7 8 11 10 10 10 10 9 9 9 9 10 11 11 11 10 11 11 11 11 10 10 10 11 13 14 15 15 15 15 9 5 10 14 14 14 7
Wind_Speed
5 3 3 3 1 4 1 3 7 13 4 6 22 9 8 7 2 4 24 19 23 23 24 23 24 24 26 25 24 22 21 20 19 18 18 18 18 19 20 18 17 16 17 18 18 18 18 15 13
7 3 4 4 2 4 1 6 8 11 19 28 18 16 7 5 15 27 27 21 22 23 25 24 24 24 24 23 21 21 19 18 19 19 19 18 17 17 17 15 14 14 14 15 16 14 14 14 13
5 2 5 2 2 2 4 7 14 19 19 17 8 16 8 8 28 29 22 23 24 25 25 25 24 24 23 21 20 19 18 17 18 18 17 17 16 15 15 14 13 12 12 12 13 11 11 13 12
4 4 5 3 3 3 5 10 19 19 13 19 21 8 14 16 27 25 24 26 25 25 24 24 23 22 21 19 18 16 16 16 16 16 15 14 14 13 13 13 13 12 11 12 11 10 8 10 12
3 2 3 2 4 4 17 22 27 18 13 19 25 13 19 23 26 25 26 26 25 26 24 24 22 21 20 18 16 15 15 15 14 14 13 12 11 10 9 9 10 11 10 9 9 8 8 9 11
5 2 3 2 2 4 16 35 16 21 22 22 26 24 10 26 27 26 25 21 19 24 24 23 21 20 18 16 15 14 14 14 13 12 10 9 7 7 6 7 7 8 8 8 8 7 7 7 9
6 2 3 5 9 3 4 28 22 23 25 19 35 11 22 34 27 25 24 20 21 21 22 22 21 19 17 15 14 14 13 13 12 10 8 7 7 6 6 6 5 5 6 7 7 7 6 6 8
4 3 6 4 5 6 4 22 31 31 11 32 36 9 23 34 32 26 22 19 20 21 19 20 20 18 17 15 14 13 12 11 11 10 9 8 8 7 6 6 5 4 4 4 3 4 5 6 7
7 5 1 4 4 5 2 19 19 23 33 32 8 32 43 38 34 32 26 23 23 20 19 17 17 16 15 14 12 11 10 10 10 9 8 7 7 7 8 5 4 3 4 4 4 4 5 6 7
8 3 6 1 4 5 16 19 23 13 27 15 25 28 38 40 39 35 28 27 22 24 21 19 17 15 14 13 12 12 12 12 12 11 11 10 8 6 5 3 3 3 3 3 4 4 5 6 8
2 3 6 17 16 15 16 17 17 31 12 34 33 34 43 44 39 32 27 24 24 25 21 21 17 13 14 12 12 14 14 13 11 10 10 7 5 4 3 1 3 1 3 2 5 4 3 6 7
8 16 23 13 34 18 12 27 10 20 21 37 40 34 36 42 39 30 28 26 26 25 23 21 16 15 12 13 14 13 13 11 9 8 5 7 4 2 2 3 3 3 4 2 5 4 7 7 8
5 17 19 4 5 10 26 13 8 18 32 34 36 33 30 38 37 26 26 26 24 23 22 20 16 10 12 11 11 10 10 8 7 5 6 6 5 3 4 5 7 7 7 7 4 6 8 7 9
11 7 18 10 2 5 2 8 17 22 33 35 35 32 25 27 35 30 32 28 28 24 22 21 15 12 11 11 8 8 7 5 6 5 5 3 2 8 7 9 9 10 11 11 12 9 9 8 7
12 6 4 8 5 3 7 5 3 16 25 33 32 29 26 25 28 26 31 30 27 25 24 23 16 13 14 13 11 9 9 6 4 3 2 3 6 11 10 10 12 12 13 14 17 15 14 12 12
2 3 4 8 11 4 2 5 4 6 22 29 34 31 28 27 27 28 33 28 31 27 27 22 18 16 17 17 15 15 12 8 3 2 4 5 6 5 8 10 11 13 13 13 12 9 12 10 9
3 3 4 5 6 6 7 5 8 10 18 27 32 35 33 31 29 29 34 33 30 27 26 23 20 13 19 17 14 16 16 12 6 6 6 6 5 6 8 9 11 11 11 7 7 10 11 10 7
4 4 3 6 11 10 6 4 6 19 19 25 31 36 35 34 33 31 32 35 32 28 25 23 19 13 9 14 17 18 14 9 7 6 9 10 8 7 9 10 12 10 9 3 7 11 10 8 6
5 4 7 1 10 7 13 3 7 20 18 20 25 34 37 35 32 32 35 35 33 29 28 25 20 17 14 16 20 18 13 11 8 9 9 7 14 10 6 7 7 6 8 6 9 11 9 7 5
7 3 9 6 15 5 4 5 4 11 18 27 31 30 38 36 31 35 36 35 34 32 30 24 20 19 16 12 13 17 16 13 11 11 10 11 10 8 6 3 3 3 6 8 10 10 8 6 3
4 4 4 6 15 1 7 7 3 6 8 21 26 35 38 37 37 39 39 38 36 35 31 24 22 21 18 13 13 20 18 12 11 15 8 7 12 8 6 2 2 3 4 6 5 6 5 5 4
4 2 1 2 4 3 4 4 4 5 13 13 23 29 37 29 42 42 42 41 39 37 31 26 21 22 20 16 18 25 21 12 12 13 11 10 9 7 3 4 4 4 6 4 3 3 5 6 6
7 3 1 2 2 2 2 3 6 5 9 14 22 30 39 35 40 43 45 42 41 39 34 28 21 23 22 20 20 24 20 16 11 8 7 5 8 6 2 4 5 6 5 3 2 2 5 7 9
2 6 8 6 3 3 5 4 5 6 16 11 21 32 42 44 40 44 45 42 43 42 36 31 25 25 24 22 21 21 20 19 19 12 11 7 9 6 3 3 3 6 3 2 3 2 3 5 5
9 7 4 4 5 5 4 2 8 8 10 15 23 33 44 50 41 45 45 44 46 45 40 35 30 28 28 25 22 21 19 20 19 17 11 11 8 6 5 4 3 3 5 4 4 4 3 3 6
4 8 5 5 3 6 3 4 5 8 14 27 32 39 41 46 44 44 49 48 45 46 42 38 35 30 31 29 24 22 22 21 20 20 16 11 10 6 5 6 5 4 4 6 4 2 1 2 5
4 2 8 4 1 1 4 4 4 14 17 8 20 29 37 43 43 44 48 46 45 43 44 41 38 32 29 27 26 24 24 25 24 22 22 17 11 11 7 6 6 6 8 9 7 5 4 4 3
8 4 3 4 1 3 5 3 2 7 7 10 7 24 35 44 48 47 48 48 44 41 38 40 39 34 29 28 27 27 26 25 25 25 23 21 18 16 10 9 4 7 9 11 9 8 7 6 6
6 3 6 5 5 5 2 5 6 13 5 14 13 27 35 43 47 48 47 48 45 43 40 38 40 38 34 30 28 29 26 26 25 25 25 22 20 19 13 8 6 9 10 13 12 10 8 8 8
3 4 5 5 5 2 4 5 14 13 13 12 21 25 37 46 46 47 42 46 45 44 42 40 39 39 35 30 30 29 27 25 27 26 25 26 24 15 13 9 5 10 13 14 17 12 11 10 11
Wind_Direction
127 58 10 334 203 90 292 33 128 103 89 154 156 185 158 112 181 153 140 144 153 141 142 140 144 142 140 139 134 130 128 125 124 123 122 123 123 119 126 123 117 113 113 117 121 127 131 125 110
138 110 311 329 36 79 63 130 93 105 115 120 100 108 97 87 107 131 143 148 158 146 145 143 146 142 137 139 136 130 126 122 123 123 123 123 120 123 125 124 124 123 119 119 119 123 124 117 112
189 301 300 116 311 166 157 132 131 123 143 133 106 98 85 98 130 136 139 154 156 150 145 145 147 145 142 140 136 136 132 126 126 127 125 121 119 121 124 125 127 126 128 130 127 128 129 122 118
38 278 248 355 256 255 47 140 131 133 130 114 115 71 97 123 130 134 139 150 155 149 147 148 148 147 145 144 144 141 137 135 134 132 128 125 123 124 124 128 130 130 130 134 137 138 139 138 128
188 89 313 327 288 53 100 119 124 128 115 108 117 115 120 144 132 130 134 146 152 149 150 151 153 153 151 151 149 146 142 141 139 137 135 132 131 129 130 133 136 138 139 143 141 144 143 146 143
88 51 27 322 317 49 135 144 130 116 121 125 121 127 123 146 141 140 135 132 142 148 151 152 155 158 160 158 153 150 147 144 144 143 141 141 142 148 152 153 150 148 147 149 148 153 155 163 156
100 57 350 317 339 337 132 131 136 125 132 140 136 119 139 149 153 150 140 139 144 149 153 153 154 155 157 158 157 155 153 151 150 149 149 148 154 160 163 163 152 156 154 150 147 147 148 146 155
102 111 17 8 333 288 350 153 143 141 133 138 137 148 155 159 164 154 149 146 149 153 154 153 153 153 154 154 155 154 154 150 146 145 147 148 148 147 152 151 147 173 185 181 176 165 166 157 161
39 46 347 271 287 270 71 125 148 136 138 150 200 158 157 166 165 157 153 152 158 155 153 153 151 152 155 153 150 151 151 151 148 147 133 137 131 113 117 124 136 159 191 199 201 190 186 187 185
44 46 239 246 239 303 278 133 130 126 148 148 133 150 153 166 166 160 160 156 158 156 155 155 154 150 149 146 146 143 140 137 132 125 136 106 122 135 133 91 112 163 190 188 172 185 194 193 197
150 211 255 258 236 195 79 10 132 159 166 152 155 151 157 167 166 169 172 165 160 148 146 149 144 147 141 138 145 143 133 136 135 132 124 120 119 108 126 69 49 22 224 171 195 251 207 221 191
135 196 211 268 229 252 130 180 144 174 174 158 154 159 160 161 168 176 175 174 167 162 153 148 141 134 128 131 138 149 148 133 125 148 143 152 120 214 252 300 284 285 268 224 229 240 236 214 236
193 180 189 132 68 254 146 190 182 145 155 156 156 163 165 172 177 177 178 181 176 170 165 164 157 149 153 147 149 141 152 149 136 120 140 141 167 247 270 288 271 269 287 283 275 284 256 240 241
211 169 173 97 171 43 165 10 115 138 146 150 159 167 179 167 174 176 182 180 186 177 172 170 168 161 172 160 170 181 178 196 185 156 118 157 234 274 265 275 281 284 286 277 264 259 253 264 266
185 192 123 121 170 79 2 43 57 115 151 154 165 172 181 183 183 184 183 180 180 182 174 177 182 186 188 185 186 178 178 180 146 177 207 226 277 261 261 278 288 294 281 275 261 260 243 255 266
175 85 34 133 146 216 230 191 235 144 161 163 170 175 185 192 197 192 191 187 182 181 181 183 191 199 200 198 205 194 180 195 175 239 234 262 293 317 284 291 292 291 287 278 264 229 228 245 262
332 225 179 122 174 184 175 183 213 172 163 178 178 181 193 199 199 200 191 187 184 184 185 192 195 202 211 217 214 198 189 169 172 214 239 268 290 314 325 317 316 311 308 302 243 212 214 217 240
181 274 204 166 195 212 240 210 171 168 177 187 185 186 197 202 204 196 191 192 191 194 196 194 190 181 175 178 164 161 172 177 213 241 258 264 279 284 311 326 328 342 344 21 150 165 173 195 201
248 207 208 218 176 163 223 164 185 162 170 183 197 192 199 201 203 192 187 192 192 196 194 195 196 187 183 167 170 174 172 177 190 223 249 264 257 274 271 305 335 14 28 79 129 145 152 165 161
261 153 277 238 163 158 228 258 150 166 191 188 194 200 199 201 197 189 188 189 193 196 196 202 200 194 193 182 176 178 173 193 211 228 248 241 246 259 280 312 334 47 62 105 127 136 143 150 152
221 204 250 153 175 296 141 311 272 203 193 198 201 203 201 203 196 187 190 191 195 194 199 205 206 204 198 187 179 183 195 208 229 238 272 199 233 234 267 298 329 128 105 115 131 145 143 151 145
350 171 270 41 120 185 181 260 247 226 213 200 199 204 201 200 191 188 190 193 198 200 201 206 212 210 200 193 182 179 190 205 208 216 228 209 219 219 227 272 262 192 161 128 157 158 166 167 162
265 342 39 81 156 105 307 90 269 178 235 212 199 201 202 202 194 191 195 199 203 200 202 204 210 206 199 196 193 192 197 210 214 195 201 194 178 191 221 280 248 199 199 167 177 176 156 160 165
266 41 28 35 62 54 227 137 281 196 219 188 192 192 196 203 201 199 199 200 204 202 202 202 204 200 198 197 198 202 201 210 222 236 200 204 196 201 248 280 251 226 226 263 247 227 192 174 182
68 57 359 344 3 219 220 62 234 258 211 181 190 190 194 199 200 197 199 201 202 202 203 203 203 200 198 198 203 206 202 210 219 232 229 214 226 234 239 267 302 254 246 247 278 256 230 193 192
185 137 152 230 229 267 60 232 263 236 248 198 186 189 189 194 200 201 200 203 206 206 207 207 204 202 202 204 210 215 215 213 219 228 230 234 253 286 248 259 287 268 239 259 236 214 145 235 234
233 183 192 159 154 83 252 323 23 27 15 151 169 177 186 190 197 202 199 204 208 210 210 211 209 206 204 207 210 216 218 219 217 221 231 236 239 253 252 257 255 240 233 235 212 214 242 298 245
150 167 49 10 44 5 334 329 245 20 14 354 151 174 186 189 197 200 202 205 209 211 213 213 214 212 210 211 215 217 219 220 224 221 224 228 230 242 254 260 259 258 235 227 233 236 237 227 225
336 331 63 119 136 160 213 261 211 123 171 266 262 172 182 190 196 200 202 202 210 213 216 216 217 218 217 219 223 222 224 225 223 225 224 227 230 236 246 255 264 260 235 235 231 234 260 263 249
250 251 148 131 249 200 162 270 188 177 199 244 272 184 182 192 197 200 201 203 208 215 218 221 221 222 226 228 228 228 228 229 226 224 224 225 228 236 224 214 251 271 244 244 231 235 245 260 273
Height
1510 1511 1510 1509 1513 1512 1514 1507 1496 1503 1505 1505 1506 1503 1507 1511 1514 1527 1522 1527 1531 1534 1536 1539 1541 1543 1544 1548 1548 1550 1552 1553 1554 1555 1556 1558 1558 1559 1561 1562 1564 1565 1565 1566 1567 1567 1568 1569 1569
1514 1513 1512 1510 1515 1521 1512 1499 1505 1503 1504 1505 1506 1506 1508 1515 1514 1519 1523 1528 1532 1534 1537 1540 1542 1544 1545 1549 1549 1551 1553 1555 1555 1556 1558 1559 1560 1561 1563 1564 1566 1566 1567 1568 1569 1570 1570 1570 1570
1515 1512 1513 1514 1517 1517 1514 1502 1502 1504 1506 1504 1507 1510 1512 1517 1518 1521 1526 1529 1532 1535 1537 1541 1544 1545 1547 1549 1551 1552 1554 1555 1557 1558 1559 1561 1561 1563 1564 1565 1567 1568 1568 1569 1570 1571 1572 1572 1572
1513 1516 1515 1518 1513 1499 1503 1503 1500 1504 1511 1507 1507 1512 1518 1520 1520 1524 1527 1531 1534 1536 1539 1542 1545 1547 1549 1551 1553 1553 1555 1556 1558 1559 1560 1562 1563 1564 1565 1566 1567 1568 1569 1570 1570 1571 1573 1574 1574
1515 1517 1517 1516 1509 1500 1498 1501 1499 1503 1506 1507 1510 1519 1520 1524 1523 1526 1529 1533 1535 1537 1540 1543 1546 1549 1551 1553 1553 1554 1556 1558 1559 1561 1561 1563 1564 1565 1566 1568 1568 1569 1570 1570 1571 1572 1573 1575 1575
1515 1518 1523 1526 1508 1498 1496 1500 1504 1503 1507 1511 1513 1517 1523 1524 1526 1529 1532 1534 1537 1538 1541 1544 1547 1550 1552 1553 1554 1555 1557 1559 1560 1561 1562 1563 1565 1566 1567 1568 1569 1569 1570 1571 1571 1572 1573 1574 1575
1514 1521 1526 1522 1516 1503 1499 1500 1502 1504 1509 1513 1512 1517 1527 1527 1528 1530 1533 1535 1537 1540 1543 1545 1548 1550 1552 1554 1555 1556 1558 1559 1561 1562 1563 1564 1565 1566 1567 1568 1568 1569 1570 1571 1571 1572 1573 1574 1575
1514 1516 1523 1522 1521 1510 1496 1501 1501 1501 1508 1512 1513 1520 1525 1527 1529 1533 1535 1537 1540 1542 1544 1546 1548 1551 1552 1554 1556 1557 1559 1560 1562 1564 1564 1565 1566 1567 1568 1568 1569 1569 1570 1570 1571 1572 1573 1574 1575
1519 1525 1531 1524 1521 1508 1499 1502 1508 1506 1510 1511 1511 1513 1519 1525 1530 1534 1537 1540 1541 1544 1545 1547 1549 1552 1553 1555 1557 1559 1560 1562 1563 1565 1566 1567 1568 1569 1569 1569 1569 1570 1570 1570 1571 1572 1573 1574 1574
1526 1535 1516 1514 1516 1515 1505 1501 1507 1515 1515 1517 1516 1521 1524 1526 1530 1533 1537 1539 1542 1543 1546 1548 1550 1553 1554 1556 1558 1560 1561 1563 1564 1565 1567 1568 1569 1570 1570 1570 1570 1570 1570 1570 1571 1571 1572 1573 1573
1526 1535 1530 1522 1507 1506 1508 1509 1509 1503 1514 1510 1513 1519 1523 1525 1530 1533 1536 1536 1539 1543 1546 1548 1551 1553 1555 1557 1559 1561 1563 1565 1566 1567 1568 1569 1570 1570 1570 1570 1571 1570 1570 1571 1571 1571 1571 1572 1573
1517 1519 1518 1510 1507 1510 1504 1509 1508 1508 1509 1510 1513 1518 1522 1526 1529 1532 1535 1538 1541 1544 1546 1549 1552 1554 1556 1558 1560 1562 1564 1565 1567 1568 1568 1569 1570 1570 1570 1570 1570 1570 1571 1571 1571 1571 1571 1571 1571
1506 1505 1508 1508 1505 1507 1498 1504 1503 1505 1510 1512 1516 1520 1523 1527 1530 1532 1534 1538 1540 1544 1547 1549 1551 1554 1556 1558 1560 1562 1564 1565 1566 1567 1568 1568 1568 1569 1569 1569 1568 1569 1569 1569 1570 1569 1570 1570 1569
1494 1503 1503 1503 1503 1503 1505 1504 1498 1509 1509 1513 1517 1519 1524 1526 1529 1531 1534 1537 1540 1544 1546 1548 1550 1553 1556 1558 1559 1561 1563 1565 1566 1567 1567 1567 1567 1567 1567 1567 1567 1567 1566 1566 1566 1566 1567 1570 1568
1496 1499 1498 1500 1503 1510 1507 1507 1509 1510 1514 1514 1518 1521 1523 1527 1529 1531 1533 1535 1538 1541 1544 1546 1548 1551 1553 1556 1559 1561 1563 1565 1566 1567 1568 1568 1569 1568 1566 1566 1565 1565 1564 1563 1562 1560 1565 1567 1568
1495 1498 1509 1503 1500 1499 1502 1516 1507 1508 1512 1514 1518 1520 1522 1525 1527 1529 1532 1535 1537 1540 1542 1544 1547 1550 1553 1556 1558 1562 1564 1565 1566 1566 1568 1568 1568 1567 1567 1566 1565 1563 1561 1558 1558 1558 1562 1564 1565
1503 1512 1507 1506 1497 1497 1502 1506 1500 1504 1508 1513 1515 1516 1519 1522 1525 1528 1530 1533 1535 1538 1541 1544 1548 1551 1553 1556 1559 1561 1564 1566 1566 1567 1567 1567 1566 1566 1565 1565 1564 1561 1558 1556 1554 1556 1559 1562 1564
1515 1505 1495 1502 1498 1494 1496 1495 1492 1498 1504 1509 1511 1512 1516 1519 1522 1526 1529 1532 1535 1539 1541 1544 1547 1550 1553 1556 1558 1561 1563 1565 1565 1566 1566 1566 1566 1565 1564 1563 1562 1560 1557 1553 1553 1554 1557 1559 1561
1493 1497 1496 1482 1486 1495 1497 1491 1491 1493 1499 1504 1507 1508 1510 1515 1519 1524 1527 1530 1534 1538 1540 1543 1546 1549 1552 1555 1557 1560 1563 1563 1564 1564 1564 1564 1565 1565 1563 1561 1560 1559 1557 1555 1554 1555 1556 1558 1559
1488 1492 1488 1479 1486 1495 1497 1492 1489 1489 1491 1493 1498 1503 1505 1510 1515 1521 1525 1528 1531 1534 1538 1541 1544 1547 1550 1554 1556 1560 1561 1561 1560 1559 1560 1562 1563 1564 1564 1560 1558 1558 1558 1557 1557 1557 1556 1557 1558
1486 1490 1482 1483 1488 1494 1498 1499 1494 1485 1486 1491 1494 1499 1502 1505 1510 1517 1521 1524 1528 1532 1535 1538 1541 1544 1548 1552 1554 1557 1558 1558 1558 1557 1558 1558 1560 1560 1561 1559 1557 1557 1558 1558 1559 1558 1557 1557 1558
1488 1473 1472 1473 1490 1508 1486 1522 1498 1485 1482 1484 1490 1496 1499 1503 1507 1512 1517 1521 1524 1528 1532 1537 1540 1543 1546 1550 1552 1553 1554 1555 1555 1556 1557 1557 1558 1559 1558 1557 1556 1556 1557 1557 1558 1558 1556 1556 1557
1480 1468 1472 1474 1485 1489 1491 1509 1496 1485 1486 1482 1484 1491 1496 1499 1504 1508 1511 1515 1519 1525 1529 1534 1538 1541 1544 1547 1549 1551 1552 1553 1554 1555 1557 1556 1557 1557 1555 1556 1556 1556 1556 1558 1559 1559 1558 1557 1557
1466 1473 1482 1485 1502 1523 1498 1500 1499 1489 1473 1475 1477 1482 1491 1491 1497 1505 1508 1513 1516 1521 1525 1530 1535 1537 1540 1543 1546 1548 1549 1550 1552 1553 1555 1555 1555 1556 1556 1557 1558 1558 1559 1560 1561 1561 1560 1560 1560
1474 1499 1535 1528 1538 1526 1500 1503 1486 1460 1457 1462 1469 1477 1481 1487 1495 1500 1505 1508 1512 1516 1521 1526 1531 1533 1537 1540 1543 1545 1548 1548 1549 1552 1554 1554 1555 1555 1556 1559 1560 1560 1561 1562 1563 1563 1562 1561 1561
1478 1494 1533 1536 1543 1522 1498 1508 1479 1452 1450 1454 1461 1467 1476 1485 1490 1495 1498 1502 1506 1511 1516 1521 1525 1529 1533 1537 1539 1542 1545 1546 1548 1549 1552 1554 1554 1557 1560 1560 1560 1560 1561 1563 1564 1564 1564 1564 1563
1478 1492 1482 1502 1515 1519 1504 1477 1461 1458 1459 1454 1462 1468 1474 1480 1486 1491 1495 1499 1503 1507 1511 1515 1520 1525 1529 1532 1535 1538 1541 1543 1543 1547 1549 1552 1556 1558 1558 1560 1560 1560 1560 1560 1559 1559 1561 1562 1562
1466 1467 1497 1511 1524 1522 1508 1496 1496 1476 1468 1467 1467 1466 1470 1475 1481 1485 1490 1494 1498 1502 1506 1511 1516 1519 1523 1528 1531 1533 1535 1538 1542 1545 1548 1551 1554 1555 1555 1556 1557 1560 1561 1560 1560 1559 1557 1557 1559
1477 1481 1487 1497 1513 1530 1530 1509 1481 1473 1472 1464 1466 1463 1467 1472 1477 1481 1485 1490 1494 1498 1502 1506 1512 1516 1520 1523 1526 1529 1532 1535 1539 1542 1545 1548 1549 1551 1556 1559 1562 1561 1559 1557 1557 1559 1561 1561 1559
1465 1472 1483 1511 1508 1511 1511 1504 1462 1461 1461 1464 1467 1463 1465 1468 1473 1478 1482 1488 1492 1495 1499 1502 1506 1510 1513 1517 1521 1524 1528 1531 1533 1537 1541 1543 1546 1553 1553 1556 1560 1565 1558 1552 1552 1555 1558 1558 1560